Year,Month,Day,Hour,Minute,Value (Times are PST for temperature in C)
2011,04,23,00,00,7.50
2011,04,23,00,01,7.50
2011,04,23,00,02,7.50
2011,04,23,00,03,7.50
2011,04,23,00,04,7.50
2011,04,23,00,05,7.50
2011,04,23,00,06,7.50
2011,04,23,00,07,7.50
2011,04,23,00,08,7.50
2011,04,23,00,09,7.50
2011,04,23,00,10,7.60
2011,04,23,00,11,7.60
2011,04,23,00,12,7.70
2011,04,23,00,16,7.70
2011,04,23,00,17,7.70
2011,04,23,00,18,7.70
2011,04,23,00,19,7.70
2011,04,23,00,20,7.70
2011,04,23,00,21,7.70
2011,04,23,00,22,7.70
2011,04,23,00,23,7.60
2011,04,23,00,24,7.60
2011,04,23,00,25,7.60
2011,04,23,00,26,7.60
2011,04,23,00,27,7.60
2011,04,23,00,28,7.60
2011,04,23,00,29,7.60
2011,04,23,00,30,7.60
2011,04,23,00,31,7.60
2011,04,23,00,32,7.60
2011,04,23,00,33,7.50
2011,04,23,00,34,7.50
2011,04,23,00,35,7.50
2011,04,23,00,36,7.40
2011,04,23,00,37,7.40
2011,04,23,00,38,7.30
2011,04,23,00,39,7.20
2011,04,23,00,40,7.10
2011,04,23,00,41,7.10
2011,04,23,00,42,7.00
2011,04,23,00,43,7.00
2011,04,23,00,44,7.00
2011,04,23,00,45,6.90
2011,04,23,00,46,6.90
2011,04,23,00,47,6.90
2011,04,23,00,48,6.90
2011,04,23,00,49,7.00
2011,04,23,00,50,7.00
2011,04,23,00,51,7.00
2011,04,23,00,52,7.10
2011,04,23,00,53,7.10
2011,04,23,00,54,7.10
2011,04,23,00,55,7.10
2011,04,23,00,56,7.10
2011,04,23,00,57,7.10
2011,04,23,00,58,7.10
2011,04,23,00,59,7.10
2011,04,23,01,00,7.20
2011,04,23,01,01,7.10
2011,04,23,01,02,7.10
2011,04,23,01,03,7.10
2011,04,23,01,04,7.00
2011,04,23,01,05,7.00
2011,04,23,01,06,7.10
2011,04,23,01,07,7.10
2011,04,23,01,08,7.10
2011,04,23,01,09,7.10
2011,04,23,01,10,7.10
2011,04,23,01,11,7.10
2011,04,23,01,12,7.10
2011,04,23,01,13,7.10
2011,04,23,01,14,7.10
2011,04,23,01,15,7.10
2011,04,23,01,16,7.00
2011,04,23,01,17,7.00
2011,04,23,01,18,6.90
2011,04,23,01,19,6.90
2011,04,23,01,20,6.90
2011,04,23,01,21,6.90
2011,04,23,01,22,6.90
2011,04,23,01,23,6.80
2011,04,23,01,24,6.80
2011,04,23,01,25,6.70
2011,04,23,01,26,6.70
2011,04,23,01,27,6.60
2011,04,23,01,28,6.60
2011,04,23,01,29,6.50
2011,04,23,01,30,6.50
2011,04,23,01,31,6.40
2011,04,23,01,32,6.40
2011,04,23,01,33,6.50
2011,04,23,01,34,6.50
2011,04,23,01,35,6.50
2011,04,23,01,36,6.50
2011,04,23,01,37,6.50
2011,04,23,01,38,6.50
2011,04,23,01,39,6.50
2011,04,23,01,40,6.50
2011,04,23,01,41,6.50
2011,04,23,01,42,6.50
2011,04,23,01,43,6.40
2011,04,23,01,44,6.40
2011,04,23,01,45,6.30
2011,04,23,01,46,6.30
2011,04,23,01,47,6.20
2011,04,23,01,48,6.10
2011,04,23,01,49,6.10
2011,04,23,01,50,6.00
2011,04,23,01,51,5.90
2011,04,23,01,52,5.90
2011,04,23,01,53,5.80
2011,04,23,01,54,5.80
2011,04,23,01,55,5.90
2011,04,23,01,56,5.90
2011,04,23,01,57,5.90
2011,04,23,01,58,6.00
2011,04,23,01,59,6.00
2011,04,23,02,00,6.10
2011,04,23,02,01,6.10
2011,04,23,02,02,6.10
2011,04,23,02,03,6.20
2011,04,23,02,04,6.30
2011,04,23,02,05,6.30
2011,04,23,02,06,6.40
2011,04,23,02,07,6.40
2011,04,23,02,08,6.40
2011,04,23,02,09,6.40
2011,04,23,02,10,6.50
2011,04,23,02,11,6.50
2011,04,23,02,12,6.50
2011,04,23,02,13,6.50
2011,04,23,02,14,6.50
2011,04,23,02,15,6.50
2011,04,23,02,16,6.60
2011,04,23,02,17,6.70
2011,04,23,02,18,6.70
2011,04,23,02,19,6.70
2011,04,23,02,20,6.80
2011,04,23,02,21,6.80
2011,04,23,02,22,6.80
2011,04,23,02,23,6.80
2011,04,23,02,24,6.80
2011,04,23,02,25,6.80
2011,04,23,02,26,6.80
2011,04,23,02,27,6.90
2011,04,23,02,28,6.90
2011,04,23,02,29,6.90
2011,04,23,02,30,6.90
2011,04,23,02,31,6.90
2011,04,23,02,32,7.00
2011,04,23,02,33,7.00
2011,04,23,02,34,7.00
2011,04,23,02,35,7.00
2011,04,23,02,36,7.00
2011,04,23,02,37,7.00
2011,04,23,02,38,7.00
2011,04,23,02,39,7.00
2011,04,23,02,40,6.90
2011,04,23,02,41,6.90
2011,04,23,02,42,6.90
2011,04,23,02,43,7.00
2011,04,23,02,44,7.00
2011,04,23,02,45,7.10
2011,04,23,02,46,7.10
2011,04,23,02,47,7.10
2011,04,23,02,48,7.10
2011,04,23,02,49,7.10
2011,04,23,02,50,7.20
2011,04,23,02,51,7.20
2011,04,23,02,52,7.20
2011,04,23,02,53,7.20
2011,04,23,02,54,7.20
2011,04,23,02,55,7.20
2011,04,23,02,56,7.20
2011,04,23,02,57,7.20
2011,04,23,02,58,7.20
2011,04,23,02,59,7.20
2011,04,23,03,00,7.20
2011,04,23,03,01,7.10
2011,04,23,03,02,7.00
2011,04,23,03,03,7.00
2011,04,23,03,04,6.90
2011,04,23,03,05,6.90
2011,04,23,03,06,6.90
2011,04,23,03,07,6.80
2011,04,23,03,08,6.90
2011,04,23,03,09,6.90
2011,04,23,03,10,6.90
2011,04,23,03,11,6.90
2011,04,23,03,12,6.90
2011,04,23,03,13,6.90
2011,04,23,03,14,6.80
2011,04,23,03,15,6.80
2011,04,23,03,16,6.70
2011,04,23,03,17,6.60
2011,04,23,03,18,6.50
2011,04,23,03,19,6.50
2011,04,23,03,20,6.40
2011,04,23,03,21,6.30
2011,04,23,03,22,6.30
2011,04,23,03,23,6.30
2011,04,23,03,24,6.30
2011,04,23,03,25,6.30
2011,04,23,03,26,6.30
2011,04,23,03,27,6.30
2011,04,23,03,28,6.20
2011,04,23,03,29,6.20
2011,04,23,03,30,6.10
2011,04,23,03,31,6.10
2011,04,23,03,32,6.00
2011,04,23,03,33,5.90
2011,04,23,03,34,5.90
2011,04,23,03,35,5.90
2011,04,23,03,36,5.80
2011,04,23,03,37,5.80
2011,04,23,03,38,5.70
2011,04,23,03,39,5.60
2011,04,23,03,40,5.60
2011,04,23,03,41,5.50
2011,04,23,03,42,5.40
2011,04,23,03,43,5.30
2011,04,23,03,44,5.30
2011,04,23,03,45,5.20
2011,04,23,03,46,5.10
2011,04,23,03,47,5.10
2011,04,23,03,48,5.00
2011,04,23,03,49,5.00
2011,04,23,03,50,4.90
2011,04,23,03,51,4.90
2011,04,23,03,52,4.80
2011,04,23,03,53,4.80
2011,04,23,03,54,4.80
2011,04,23,03,55,4.80
2011,04,23,03,56,4.80
2011,04,23,03,57,4.70
2011,04,23,03,58,4.70
2011,04,23,03,59,4.70
2011,04,23,04,00,4.70
2011,04,23,04,01,4.70
2011,04,23,04,02,4.70
2011,04,23,04,03,4.70
2011,04,23,04,04,4.70
2011,04,23,04,05,4.70
2011,04,23,04,06,4.70
2011,04,23,04,07,4.70
2011,04,23,04,08,4.70
2011,04,23,04,09,4.70
2011,04,23,04,10,4.70
2011,04,23,04,11,4.70
2011,04,23,04,12,4.60
2011,04,23,04,13,4.60
2011,04,23,04,14,4.50
2011,04,23,04,15,4.50
2011,04,23,04,16,4.40
2011,04,23,04,17,4.40
2011,04,23,04,18,4.30
2011,04,23,04,19,4.30
2011,04,23,04,20,4.30
2011,04,23,04,21,4.20
2011,04,23,04,22,4.20
2011,04,23,04,23,4.20
2011,04,23,04,24,4.30
2011,04,23,04,25,4.30
2011,04,23,04,26,4.30
2011,04,23,04,27,4.30
2011,04,23,04,28,4.30
2011,04,23,04,29,4.20
2011,04,23,04,30,4.20
2011,04,23,04,31,4.20
2011,04,23,04,32,4.20
2011,04,23,04,33,4.20
2011,04,23,04,34,4.20
2011,04,23,04,35,4.30
2011,04,23,04,36,4.30
2011,04,23,04,37,4.30
2011,04,23,04,38,4.30
2011,04,23,04,39,4.30
2011,04,23,04,40,4.30
2011,04,23,04,41,4.30
2011,04,23,04,42,4.30
2011,04,23,04,43,4.30
2011,04,23,04,44,4.30
2011,04,23,04,45,4.40
2011,04,23,04,46,4.40
2011,04,23,04,47,4.40
2011,04,23,04,48,4.40
2011,04,23,04,49,4.50
2011,04,23,04,50,4.50
2011,04,23,04,51,4.60
2011,04,23,04,52,4.60
2011,04,23,04,53,4.60
2011,04,23,04,54,4.70
2011,04,23,04,55,4.70
2011,04,23,04,56,4.70
2011,04,23,04,57,4.80
2011,04,23,04,58,4.80
2011,04,23,04,59,4.90
2011,04,23,05,00,4.90
2011,04,23,05,01,4.90
2011,04,23,05,02,4.90
2011,04,23,05,03,4.90
2011,04,23,05,04,4.90
2011,04,23,05,05,4.90
2011,04,23,05,06,5.00
2011,04,23,05,07,5.00
2011,04,23,05,08,5.00
2011,04,23,05,09,5.00
2011,04,23,05,10,5.10
2011,04,23,05,11,5.10
2011,04,23,05,12,5.10
2011,04,23,05,13,5.10
2011,04,23,05,14,5.10
2011,04,23,05,15,5.00
2011,04,23,05,16,5.00
2011,04,23,05,17,4.90
2011,04,23,05,18,4.90
2011,04,23,05,19,4.90
2011,04,23,05,20,4.90
2011,04,23,05,21,4.90
2011,04,23,05,22,4.90
2011,04,23,05,23,4.90
2011,04,23,05,24,4.90
2011,04,23,05,25,4.90
2011,04,23,05,26,4.90
2011,04,23,05,27,4.90
2011,04,23,05,28,4.90
2011,04,23,05,29,4.90
2011,04,23,05,30,4.90
2011,04,23,05,31,4.90
2011,04,23,05,32,4.90
2011,04,23,05,33,4.90
2011,04,23,05,34,4.90
2011,04,23,05,35,5.00
2011,04,23,05,36,5.00
2011,04,23,05,37,5.10
2011,04,23,05,38,5.10
2011,04,23,05,39,5.10
2011,04,23,05,40,5.10
2011,04,23,05,41,5.10
2011,04,23,05,42,5.20
2011,04,23,05,43,5.20
2011,04,23,05,44,5.20
2011,04,23,05,45,5.20
2011,04,23,05,46,5.20
2011,04,23,05,47,5.20
2011,04,23,05,48,5.20
2011,04,23,05,49,5.20
2011,04,23,05,50,5.20
2011,04,23,05,51,5.30
2011,04,23,05,52,5.30
2011,04,23,05,53,5.30
2011,04,23,05,54,5.30
2011,04,23,05,55,5.30
2011,04,23,05,56,5.30
2011,04,23,05,57,5.30
2011,04,23,05,58,5.30
2011,04,23,05,59,5.30
2011,04,23,06,00,5.30
2011,04,23,06,01,5.30
2011,04,23,06,02,5.30
2011,04,23,06,03,5.30
2011,04,23,06,04,5.30
2011,04,23,06,05,5.30
2011,04,23,06,06,5.40
2011,04,23,06,07,5.40
2011,04,23,06,08,5.40
2011,04,23,06,09,5.40
2011,04,23,06,10,5.40
2011,04,23,06,11,5.50
2011,04,23,06,12,5.50
2011,04,23,06,13,5.50
2011,04,23,06,14,5.50
2011,04,23,06,15,5.60
2011,04,23,06,16,5.50
2011,04,23,06,17,5.50
2011,04,23,06,18,5.50
2011,04,23,06,19,5.50
2011,04,23,06,20,5.40
2011,04,23,06,21,5.40
2011,04,23,06,22,5.40
2011,04,23,06,23,5.40
2011,04,23,06,24,5.40
2011,04,23,06,25,5.40
2011,04,23,06,26,5.40
2011,04,23,06,27,5.40
2011,04,23,06,28,5.40
2011,04,23,06,29,5.40
2011,04,23,06,30,5.40
2011,04,23,06,31,5.40
2011,04,23,06,32,5.40
2011,04,23,06,33,5.40
2011,04,23,06,34,5.40
2011,04,23,06,35,5.40
2011,04,23,06,36,5.40
2011,04,23,06,37,5.40
2011,04,23,06,38,5.50
2011,04,23,06,39,5.50
2011,04,23,06,40,5.50
2011,04,23,06,41,5.50
2011,04,23,06,42,5.50
2011,04,23,06,43,5.60
2011,04,23,06,44,5.60
2011,04,23,06,45,5.60
2011,04,23,06,46,5.60
2011,04,23,06,47,5.60
2011,04,23,06,48,5.70
2011,04,23,06,49,5.70
2011,04,23,06,50,5.70
2011,04,23,06,51,5.70
2011,04,23,06,52,5.60
2011,04,23,06,53,5.60
2011,04,23,06,54,5.60
2011,04,23,06,55,5.70
2011,04,23,06,56,5.70
2011,04,23,06,57,5.70
2011,04,23,06,58,5.70
2011,04,23,06,59,5.70
2011,04,23,07,00,5.80
2011,04,23,07,01,5.80
2011,04,23,07,02,5.90
2011,04,23,07,03,5.90
2011,04,23,07,04,6.00
2011,04,23,07,05,6.00
2011,04,23,07,06,6.10
2011,04,23,07,07,6.10
2011,04,23,07,08,6.10
2011,04,23,07,09,6.20
2011,04,23,07,10,6.30
2011,04,23,07,11,6.40
2011,04,23,07,12,6.50
2011,04,23,07,13,6.60
2011,04,23,07,14,6.70
2011,04,23,07,15,6.70
2011,04,23,07,16,6.70
2011,04,23,07,17,6.80
2011,04,23,07,18,6.80
2011,04,23,07,19,6.80
2011,04,23,07,20,6.80
2011,04,23,07,21,6.80
2011,04,23,07,22,6.90
2011,04,23,07,23,6.90
2011,04,23,07,24,7.00
2011,04,23,07,25,7.00
2011,04,23,07,26,7.00
2011,04,23,07,27,7.10
2011,04,23,07,28,7.10
2011,04,23,07,29,7.10
2011,04,23,07,30,7.10
2011,04,23,07,31,7.10
2011,04,23,07,32,7.10
2011,04,23,07,33,7.10
2011,04,23,07,34,7.10
2011,04,23,07,35,7.00
2011,04,23,07,36,7.00
2011,04,23,07,37,7.00
2011,04,23,07,38,7.00
2011,04,23,07,39,7.10
2011,04,23,07,40,7.00
2011,04,23,07,41,7.10
2011,04,23,07,42,7.10
2011,04,23,07,43,7.10
2011,04,23,07,44,7.10
2011,04,23,07,45,7.20
2011,04,23,07,46,7.20
2011,04,23,07,47,7.30
2011,04,23,07,48,7.40
2011,04,23,07,49,7.40
2011,04,23,07,50,7.50
2011,04,23,07,51,7.50
2011,04,23,07,52,7.60
2011,04,23,07,53,7.60
2011,04,23,07,54,7.60
2011,04,23,07,55,7.70
2011,04,23,07,56,7.70
2011,04,23,07,57,7.80
2011,04,23,07,58,7.80
2011,04,23,07,59,7.90
2011,04,23,08,00,7.90
2011,04,23,08,01,8.00
2011,04,23,08,02,8.00
2011,04,23,08,03,7.90
2011,04,23,08,04,7.90
2011,04,23,08,05,7.90
2011,04,23,08,06,8.00
2011,04,23,08,07,8.00
2011,04,23,08,08,7.90
2011,04,23,08,09,7.90
2011,04,23,08,10,7.90
2011,04,23,08,11,7.90
2011,04,23,08,12,8.00
2011,04,23,08,13,8.00
2011,04,23,08,14,8.00
2011,04,23,08,15,8.00
2011,04,23,08,16,7.90
2011,04,23,08,17,7.90
2011,04,23,08,18,7.90
2011,04,23,08,19,7.90
2011,04,23,08,20,7.80
2011,04,23,08,21,7.70
2011,04,23,08,22,7.70
2011,04,23,08,23,7.80
2011,04,23,08,24,7.80
2011,04,23,08,25,7.80
2011,04,23,08,26,7.80
2011,04,23,08,27,7.90
2011,04,23,08,28,7.90
2011,04,23,08,29,7.90
2011,04,23,08,30,8.00
2011,04,23,08,31,8.00
2011,04,23,08,32,8.00
2011,04,23,08,33,8.10
2011,04,23,08,34,8.10
2011,04,23,08,35,8.20
2011,04,23,08,36,8.20
2011,04,23,08,37,8.30
2011,04,23,08,38,8.30
2011,04,23,08,39,8.30
2011,04,23,08,40,8.30
2011,04,23,08,41,8.20
2011,04,23,08,42,8.30
2011,04,23,08,43,8.30
2011,04,23,08,44,8.30
2011,04,23,08,45,8.30
2011,04,23,08,46,8.20
2011,04,23,08,47,8.20
2011,04,23,08,48,8.20
2011,04,23,08,49,8.20
2011,04,23,08,50,8.20
2011,04,23,08,51,8.20
2011,04,23,08,52,8.30
2011,04,23,08,53,8.40
2011,04,23,08,54,8.50
2011,04,23,08,55,8.60
2011,04,23,08,56,8.70
2011,04,23,08,57,8.70
2011,04,23,08,58,8.70
2011,04,23,08,59,8.80
2011,04,23,09,00,8.80
2011,04,23,09,01,8.90
2011,04,23,09,02,8.90
2011,04,23,09,03,8.90
2011,04,23,09,04,9.00
2011,04,23,09,05,9.10
2011,04,23,09,06,9.10
2011,04,23,09,07,9.10
2011,04,23,09,08,9.00
2011,04,23,09,09,8.90
2011,04,23,09,10,8.90
2011,04,23,09,11,8.90
2011,04,23,09,12,8.90
2011,04,23,09,13,8.90
2011,04,23,09,14,9.00
2011,04,23,09,15,9.00
2011,04,23,09,16,9.00
2011,04,23,09,17,8.90
2011,04,23,09,18,8.80
2011,04,23,09,19,8.80
2011,04,23,09,20,8.80
2011,04,23,09,21,8.80
2011,04,23,09,22,8.80
2011,04,23,09,23,8.80
2011,04,23,09,24,8.80
2011,04,23,09,25,8.80
2011,04,23,09,26,8.90
2011,04,23,09,27,8.90
2011,04,23,09,28,8.80
2011,04,23,09,29,8.80
2011,04,23,09,30,8.70
2011,04,23,09,31,8.70
2011,04,23,09,32,8.80
2011,04,23,09,33,8.80
2011,04,23,09,34,8.80
2011,04,23,09,35,8.80
2011,04,23,09,36,8.90
2011,04,23,09,37,8.80
2011,04,23,09,38,8.70
2011,04,23,09,39,8.60
2011,04,23,09,40,8.50
2011,04,23,09,41,8.50
2011,04,23,09,42,8.40
2011,04,23,09,43,8.50
2011,04,23,09,44,8.60
2011,04,23,09,45,8.70
2011,04,23,09,46,8.90
2011,04,23,09,47,9.00
2011,04,23,09,48,9.00
2011,04,23,09,49,9.00
2011,04,23,09,50,9.00
2011,04,23,09,51,9.00
2011,04,23,09,52,9.10
2011,04,23,09,53,9.10
2011,04,23,09,54,9.10
2011,04,23,09,55,9.00
2011,04,23,09,56,8.90
2011,04,23,09,57,8.90
2011,04,23,09,58,8.90
2011,04,23,09,59,8.90
2011,04,23,10,00,8.90
2011,04,23,10,01,8.90
2011,04,23,10,02,8.90
2011,04,23,10,03,9.00
2011,04,23,10,04,9.00
2011,04,23,10,05,9.10
2011,04,23,10,06,9.10
2011,04,23,10,07,9.10
2011,04,23,10,08,9.10
2011,04,23,10,09,9.10
2011,04,23,10,10,9.10
2011,04,23,10,11,9.00
2011,04,23,10,12,9.00
2011,04,23,10,13,9.00
2011,04,23,10,14,9.00
2011,04,23,10,15,9.10
2011,04,23,10,16,9.10
2011,04,23,10,17,9.10
2011,04,23,10,18,9.20
2011,04,23,10,19,9.30
2011,04,23,10,20,9.30
2011,04,23,10,21,9.30
2011,04,23,10,22,9.20
2011,04,23,10,23,9.20
2011,04,23,10,24,9.10
2011,04,23,10,25,9.10
2011,04,23,10,26,9.10
2011,04,23,10,27,9.00
2011,04,23,10,28,9.00
2011,04,23,10,29,9.10
2011,04,23,10,30,9.10
2011,04,23,10,31,9.10
2011,04,23,10,32,9.10
2011,04,23,10,33,9.00
2011,04,23,10,34,8.90
2011,04,23,10,35,8.90
2011,04,23,10,36,8.90
2011,04,23,10,37,8.90
2011,04,23,10,38,8.90
2011,04,23,10,39,8.90
2011,04,23,10,40,9.00
2011,04,23,10,41,9.00
2011,04,23,10,42,9.00
2011,04,23,10,43,9.00
2011,04,23,10,44,9.00
2011,04,23,10,45,9.10
2011,04,23,10,46,9.20
2011,04,23,10,47,9.30
2011,04,23,10,48,9.50
2011,04,23,10,49,9.60
2011,04,23,10,50,9.50
2011,04,23,10,51,9.50
2011,04,23,10,52,9.40
2011,04,23,10,53,9.40
2011,04,23,10,54,9.50
2011,04,23,10,55,9.50
2011,04,23,10,56,9.50
2011,04,23,10,57,9.40
2011,04,23,10,58,9.50
2011,04,23,10,59,9.60
2011,04,23,11,00,9.70
2011,04,23,11,01,9.70
2011,04,23,11,02,9.70
2011,04,23,11,03,9.60
2011,04,23,11,04,9.50
2011,04,23,11,05,9.40
2011,04,23,11,06,9.30
2011,04,23,11,07,9.30
2011,04,23,11,08,9.30
2011,04,23,11,09,9.40
2011,04,23,11,10,9.50
2011,04,23,11,11,9.50
2011,04,23,11,12,9.60
2011,04,23,11,13,9.60
2011,04,23,11,14,9.60
2011,04,23,11,15,9.60
2011,04,23,11,16,9.70
2011,04,23,11,17,9.80
2011,04,23,11,18,9.90
2011,04,23,11,19,9.90
2011,04,23,11,20,9.80
2011,04,23,11,21,9.80
2011,04,23,11,22,9.80
2011,04,23,11,23,9.70
2011,04,23,11,24,9.70
2011,04,23,11,25,9.70
2011,04,23,11,26,9.70
2011,04,23,11,27,9.80
2011,04,23,11,28,9.80
2011,04,23,11,29,9.80
2011,04,23,11,30,9.90
2011,04,23,11,31,9.90
2011,04,23,11,32,9.80
2011,04,23,11,33,9.90
2011,04,23,11,34,10.10
2011,04,23,11,35,10.20
2011,04,23,11,36,10.20
2011,04,23,11,37,10.30
2011,04,23,11,38,10.30
2011,04,23,11,39,10.20
2011,04,23,11,40,10.20
2011,04,23,11,41,10.20
2011,04,23,11,42,10.30
2011,04,23,11,43,10.40
2011,04,23,11,44,10.40
2011,04,23,11,45,10.40
2011,04,23,11,46,10.40
2011,04,23,11,47,10.40
2011,04,23,11,48,10.40
2011,04,23,11,49,10.40
2011,04,23,11,50,10.40
2011,04,23,11,51,10.50
2011,04,23,11,52,10.60
2011,04,23,11,53,10.60
2011,04,23,11,54,10.50
2011,04,23,11,55,10.60
2011,04,23,11,56,10.60
2011,04,23,11,57,10.50
2011,04,23,11,58,10.50
2011,04,23,11,59,10.50
2011,04,23,12,00,10.50
2011,04,23,12,01,10.50
2011,04,23,12,02,10.60
2011,04,23,12,03,10.60
2011,04,23,12,04,10.60
2011,04,23,12,05,10.60
2011,04,23,12,06,10.60
2011,04,23,12,07,10.70
2011,04,23,12,08,10.80
2011,04,23,12,09,10.80
2011,04,23,12,10,10.90
2011,04,23,12,11,11.00
2011,04,23,12,12,11.00
2011,04,23,12,13,10.90
2011,04,23,12,14,10.90
2011,04,23,12,15,10.90
2011,04,23,12,16,10.90
2011,04,23,12,17,11.00
2011,04,23,12,18,11.00
2011,04,23,12,19,11.00
2011,04,23,12,20,11.00
2011,04,23,12,21,11.00
2011,04,23,12,22,11.00
2011,04,23,12,23,10.90
2011,04,23,12,24,10.80
2011,04,23,12,25,10.80
2011,04,23,12,26,10.80
2011,04,23,12,27,10.90
2011,04,23,12,28,11.00
2011,04,23,12,29,11.00
2011,04,23,12,30,10.90
2011,04,23,12,31,11.00
2011,04,23,12,32,11.00
2011,04,23,12,33,11.20
2011,04,23,12,34,11.40
2011,04,23,12,35,11.30
2011,04,23,12,36,11.20
2011,04,23,12,37,11.30
2011,04,23,12,38,11.30
2011,04,23,12,39,11.30
2011,04,23,12,40,11.50
2011,04,23,12,41,11.60
2011,04,23,12,42,11.80
2011,04,23,12,43,11.80
2011,04,23,12,44,11.90
2011,04,23,12,45,12.00
2011,04,23,12,46,12.20
2011,04,23,12,47,12.20
2011,04,23,12,48,12.20
2011,04,23,12,49,12.20
2011,04,23,12,50,12.00
2011,04,23,12,51,11.90
2011,04,23,12,52,11.80
2011,04,23,12,53,11.80
2011,04,23,12,54,11.70
2011,04,23,12,55,11.70
2011,04,23,12,56,11.70
2011,04,23,12,57,11.70
2011,04,23,12,58,11.70
2011,04,23,12,59,11.80
2011,04,23,13,00,11.80
2011,04,23,13,01,11.80
2011,04,23,13,02,11.80
2011,04,23,13,03,11.90
2011,04,23,13,04,11.90
2011,04,23,13,05,11.90
2011,04,23,13,06,11.80
2011,04,23,13,07,11.70
2011,04,23,13,08,11.60
2011,04,23,13,09,11.60
2011,04,23,13,10,11.60
2011,04,23,13,11,11.70
2011,04,23,13,12,11.80
2011,04,23,13,13,12.00
2011,04,23,13,14,12.20
2011,04,23,13,15,12.30
2011,04,23,13,16,12.30
2011,04,23,13,17,12.20
2011,04,23,13,18,12.10
2011,04,23,13,19,12.10
2011,04,23,13,20,12.00
2011,04,23,13,21,11.90
2011,04,23,13,22,12.00
2011,04,23,13,23,12.00
2011,04,23,13,24,12.10
2011,04,23,13,25,12.00
2011,04,23,13,26,12.00
2011,04,23,13,27,12.00
2011,04,23,13,28,12.20
2011,04,23,13,29,12.30
2011,04,23,13,30,12.30
2011,04,23,13,31,12.40
2011,04,23,13,32,12.50
2011,04,23,13,33,12.60
2011,04,23,13,34,12.60
2011,04,23,13,35,12.50
2011,04,23,13,36,12.50
2011,04,23,13,37,12.60
2011,04,23,13,38,12.60
2011,04,23,13,39,12.50
2011,04,23,13,40,12.30
2011,04,23,13,41,12.10
2011,04,23,13,42,12.10
2011,04,23,13,43,12.00
2011,04,23,13,44,12.00
2011,04,23,13,45,11.90
2011,04,23,13,46,11.90
2011,04,23,13,47,11.90
2011,04,23,13,48,11.90
2011,04,23,13,49,12.00
2011,04,23,13,50,12.00
2011,04,23,13,51,12.00
2011,04,23,13,52,12.10
2011,04,23,13,53,12.20
2011,04,23,13,54,12.20
2011,04,23,13,55,12.30
2011,04,23,13,56,12.40
2011,04,23,13,57,12.40
2011,04,23,13,58,12.40
2011,04,23,13,59,12.50
2011,04,23,14,00,12.50
2011,04,23,14,01,12.60
2011,04,23,14,02,12.60
2011,04,23,14,03,12.70
2011,04,23,14,04,12.70
2011,04,23,14,05,12.60
2011,04,23,14,06,12.60
2011,04,23,14,07,12.60
2011,04,23,14,08,12.60
2011,04,23,14,09,12.70
2011,04,23,14,10,12.70
2011,04,23,14,11,12.70
2011,04,23,14,12,12.70
2011,04,23,14,13,12.80
2011,04,23,14,14,12.70
2011,04,23,14,15,12.70
2011,04,23,14,16,12.70
2011,04,23,14,17,12.70
2011,04,23,14,18,12.70
2011,04,23,14,19,12.80
2011,04,23,14,20,12.70
2011,04,23,14,21,12.80
2011,04,23,14,22,12.80
2011,04,23,14,23,12.90
2011,04,23,14,24,12.90
2011,04,23,14,25,12.80
2011,04,23,14,26,12.80
2011,04,23,14,27,12.80
2011,04,23,14,28,12.80
2011,04,23,14,29,12.60
2011,04,23,14,30,12.50
2011,04,23,14,31,12.50
2011,04,23,14,32,12.50
2011,04,23,14,33,12.40
2011,04,23,14,34,12.30
2011,04,23,14,35,12.30
2011,04,23,14,36,12.50
2011,04,23,14,37,12.60
2011,04,23,14,38,12.60
2011,04,23,14,39,12.60
2011,04,23,14,40,12.60
2011,04,23,14,41,12.50
2011,04,23,14,42,12.50
2011,04,23,14,43,12.40
2011,04,23,14,44,12.30
2011,04,23,14,45,12.20
2011,04,23,14,46,12.20
2011,04,23,14,47,12.20
2011,04,23,14,48,12.20
2011,04,23,14,49,12.20
2011,04,23,14,50,12.10
2011,04,23,14,51,12.10
2011,04,23,14,52,12.10
2011,04,23,14,53,12.20
2011,04,23,14,54,12.20
2011,04,23,14,55,12.20
2011,04,23,14,56,12.30
2011,04,23,14,57,12.30
2011,04,23,14,58,12.40
2011,04,23,14,59,12.30
2011,04,23,15,00,12.20
2011,04,23,15,01,12.20
2011,04,23,15,02,12.30
2011,04,23,15,03,12.30
2011,04,23,15,04,12.30
2011,04,23,15,05,12.40
2011,04,23,15,06,12.50
2011,04,23,15,07,12.50
2011,04,23,15,08,12.60
2011,04,23,15,09,12.60
2011,04,23,15,10,12.70
2011,04,23,15,11,12.70
2011,04,23,15,12,12.90
2011,04,23,15,13,13.00
2011,04,23,15,14,13.10
2011,04,23,15,15,13.10
2011,04,23,15,16,13.20
2011,04,23,15,17,13.20
2011,04,23,15,18,13.20
2011,04,23,15,19,13.20
2011,04,23,15,20,13.10
2011,04,23,15,21,13.00
2011,04,23,15,22,13.00
2011,04,23,15,23,13.10
2011,04,23,15,24,13.10
2011,04,23,15,25,13.10
2011,04,23,15,26,13.10
2011,04,23,15,27,13.10
2011,04,23,15,28,13.20
2011,04,23,15,29,13.20
2011,04,23,15,30,13.30
2011,04,23,15,31,13.50
2011,04,23,15,32,13.60
2011,04,23,15,33,13.50
2011,04,23,15,34,13.50
2011,04,23,15,35,13.40
2011,04,23,15,36,13.40
2011,04,23,15,37,13.30
2011,04,23,15,38,13.20
2011,04,23,15,39,13.20
2011,04,23,15,40,13.30
2011,04,23,15,41,13.30
2011,04,23,15,42,13.30
2011,04,23,15,43,13.30
2011,04,23,15,44,13.30
2011,04,23,15,45,13.30
2011,04,23,15,46,13.40
2011,04,23,15,47,13.50
2011,04,23,15,48,13.60
2011,04,23,15,49,13.60
2011,04,23,15,50,13.70
2011,04,23,15,51,13.80
2011,04,23,15,52,13.90
2011,04,23,15,53,13.90
2011,04,23,15,54,13.90
2011,04,23,15,55,13.90
2011,04,23,15,56,13.80
2011,04,23,15,57,13.80
2011,04,23,15,58,13.80
2011,04,23,15,59,13.80
2011,04,23,16,00,13.70
2011,04,23,16,01,13.70
2011,04,23,16,02,13.70
2011,04,23,16,03,13.80
2011,04,23,16,04,13.80
2011,04,23,16,05,13.70
2011,04,23,16,06,13.70
2011,04,23,16,07,13.70
2011,04,23,16,08,13.70
2011,04,23,16,09,13.70
2011,04,23,16,10,13.70
2011,04,23,16,11,13.70
2011,04,23,16,12,13.70
2011,04,23,16,13,13.60
2011,04,23,16,14,13.60
2011,04,23,16,15,13.70
2011,04,23,16,16,13.70
2011,04,23,16,17,13.70
2011,04,23,16,18,13.70
2011,04,23,16,19,13.80
2011,04,23,16,20,13.80
2011,04,23,16,21,13.70
2011,04,23,16,22,13.60
2011,04,23,16,23,13.60
2011,04,23,16,24,13.60
2011,04,23,16,25,13.60
2011,04,23,16,26,13.60
2011,04,23,16,27,13.60
2011,04,23,16,28,13.70
2011,04,23,16,29,13.70
2011,04,23,16,30,13.90
2011,04,23,16,31,14.00
2011,04,23,16,32,13.90
2011,04,23,16,33,13.90
2011,04,23,16,34,13.90
2011,04,23,16,35,13.90
2011,04,23,16,36,14.00
2011,04,23,16,37,14.10
2011,04,23,16,38,14.10
2011,04,23,16,39,14.10
2011,04,23,16,40,14.20
2011,04,23,16,41,14.20
2011,04,23,16,42,14.30
2011,04,23,16,43,14.30
2011,04,23,16,44,14.20
2011,04,23,16,45,14.20
2011,04,23,16,46,14.20
2011,04,23,16,47,14.20
2011,04,23,16,48,14.20
2011,04,23,16,49,14.20
2011,04,23,16,50,14.20
2011,04,23,16,51,14.10
2011,04,23,16,52,14.00
2011,04,23,16,53,14.00
2011,04,23,16,54,13.90
2011,04,23,16,55,13.90
2011,04,23,16,56,13.90
2011,04,23,16,57,13.90
2011,04,23,16,58,13.90
2011,04,23,16,59,13.90
2011,04,23,17,00,13.90
2011,04,23,17,01,14.00
2011,04,23,17,02,14.10
2011,04,23,17,03,14.20
2011,04,23,17,04,14.20
2011,04,23,17,05,14.20
2011,04,23,17,06,14.20
2011,04,23,17,07,14.20
2011,04,23,17,08,14.20
2011,04,23,17,09,14.20
2011,04,23,17,10,14.10
2011,04,23,17,11,14.00
2011,04,23,17,12,14.00
2011,04,23,17,13,13.90
2011,04,23,17,14,14.00
2011,04,23,17,15,14.10
2011,04,23,17,16,14.20
2011,04,23,17,17,14.10
2011,04,23,17,18,14.10
2011,04,23,17,19,14.10
2011,04,23,17,20,14.10
2011,04,23,17,21,14.10
2011,04,23,17,22,14.00
2011,04,23,17,23,14.00
2011,04,23,17,24,14.00
2011,04,23,17,25,14.10
2011,04,23,17,26,14.10
2011,04,23,17,27,14.10
2011,04,23,17,28,14.10
2011,04,23,17,29,14.10
2011,04,23,17,30,14.10
2011,04,23,17,31,14.10
2011,04,23,17,32,14.10
2011,04,23,17,33,14.10
2011,04,23,17,34,14.10
2011,04,23,17,35,14.20
2011,04,23,17,36,14.10
2011,04,23,17,37,14.10
2011,04,23,17,38,14.00
2011,04,23,17,39,14.00
2011,04,23,17,40,14.00
2011,04,23,17,41,14.10
2011,04,23,17,42,14.10
2011,04,23,17,43,14.10
2011,04,23,17,44,14.10
2011,04,23,17,45,14.10
2011,04,23,17,46,14.20
2011,04,23,17,47,14.20
2011,04,23,17,48,14.20
2011,04,23,17,49,14.10
2011,04,23,17,50,14.10
2011,04,23,17,51,14.10
2011,04,23,17,52,14.20